Location: Ay?beleni
(36.6500°N, 30.3000°E)
Time: 03:31:05
(UTC+00:00)

Cosmos 1328 - Pass Details

Date: 16 October 2021
Orbit: 528 x 552 km, 82.5° (Epoch: 08 December)

Event Time Altitude Azimuth Distance (km) Brightness Sun altitude
Rises 16:44:39 0° 360° (N) 2,725 7.4 -17.5°
Reaches altitude 10° 16:46:54 10° 7° (N) 1,830 6.4 -18.0°
Enters shadow 16:50:35 44° 71° (ENE) 767 4.1 -18.7°
